Regional Weather Roundup
Issued by NWS Upton, NY

Current Version | Previous Version | Text Only | Print | Product List | Glossary Off
Versions: 1 2 3 4 5 6 7 8 9 10 11 12 13 14 15 16 17 18 19 20 21 22 23 24 25 26 27 28
000 ASUS41 KOKX 271809 RWROKX REGIONAL WEATHER ROUNDUP NATIONAL WEATHER SERVICE NEW YORK NY 200 PM EDT THU APR 27 2017 NOTE: "FAIR" INDICATES FEW OR NO CLOUDS BELOW 12,000 FEET WITH NO SIGNIFICANT WEATHER AND/OR OBSTRUCTIONS TO VISIBILITY. NYZ071-072-176-178-NJZ106-104-271900- NEW YORK CITY METRO AREA CITY SKY/WX TMP DP RH WIND PRES REMARKS Central Park CLOUDY 68 57 68 S7 29.93R Wall St Helipt CLOUDY 66 57 72 SE8 29.92S Bronx Bot Gard N/A 68 55 64 E3 29.92S LaGuardia APRT CLOUDY 68 57 68 S8 29.90S Kennedy INTL CLOUDY 63 59 87 S10 29.93S Breezy Point N/A 55 N/A N/A SE8 N/A Newark/Liberty CLOUDY 68 57 68 E10 29.89F Teterboro CLOUDY 71 58 63 SE12 29.88S $$ NYZ177-179-078>081-271900- LONG ISLAND NEW YORK CITY SKY/WX TMP DP RH WIND PRES REMARKS Jones Beach N/A 57 N/A N/A S7 N/A Matinecock PT NOT AVBL Farmingdale CLOUDY 65 57 75 S8 29.92S MacArthur/ISP CLOUDY 65 56 72 S8 29.92S Shirley CLOUDY 65 57 75 SW10 29.93S Mt Sinai Harb N/A N/A N/A N/A E5 N/A Westhampton CLOUDY 64 56 75 S9 29.95R East Hampton CLOUDY 61 56 84 S10 29.93R Montauk N/A 59 54 83 VRB6 29.94S $$ NYZ052-065-067-271900- HUDSON VALLEY CITY SKY/WX TMP DP RH WIND PRES REMARKS White Plains CLOUDY 66 57 72 S6 29.90F Larchmont Harb N/A 54 N/A N/A NE8 N/A Croton O-T Hud N/A 64 N/A N/A S2 N/A Newburgh CLOUDY 66 61 82 VRB7 29.90F Montgomery CLOUDY 68 59 73 SW7 29.87F Poughkeepsie CLOUDY 67 57 70 SE3 29.87F Albany CLOUDY 69 56 62 S10 29.87F $$ NJZ001-105-106-008-010-013-015-019>022-104-271900- NEW JERSEY CITY SKY/WX TMP DP RH WIND PRES REMARKS Newark/Liberty CLOUDY 68 57 68 E10 29.89F Teterboro CLOUDY 71 58 63 SE12 29.88S Caldwell CLOUDY 68 57 68 MISG 29.89F Somerville PTSUNNY 74 62 66 SE7 29.85F Linden MOCLDY 70 57 63 SE9 29.89F Sussex CLOUDY 69 60 73 SE5 29.87F Andover N/A 71 59 65 VRB6 29.87F Trenton PTSUNNY 74 63 68 SE12 29.85F Millville SUNNY 75 66 73 SE10 29.86F Atlantic City CLOUDY 67 60 78 SE12 29.90F Wrightstown MOSUNNY 77 63 61 SE10G16 29.84F Toms River MOSUNNY 73 61 65 S15 29.90F Belmar CLOUDY 69 58 67 SE12 29.91F $$ PAZ047>061-062-071-271900- EASTERN PENNSYLVANIA CITY SKY/WX TMP DP RH WIND PRES REMARKS Philadelphia PTSUNNY 79 63 57 S13 29.84F Allentown CLOUDY 78 61 55 S6 29.84F Scranton MOSUNNY 76 60 57 S12G18 29.81F $$ CTZ002-004>006-009-010-012-RIZ004-006-007-MAZ004-011-015-271900- SOUTHERN NEW ENGLAND IN CT CITY SKY/WX TMP DP RH WIND PRES REMARKS Bradley INTL CLOUDY 65 56 72 S6 29.91S Hartford CLOUDY 65 57 75 SE5 29.90F Danbury CLOUDY 62 59 90 VRB5 29.92S Wtrbury/Oxford CLOUDY 63 54 72 S3 29.92F Bridgeport CLOUDY 64 58 80 SE5 29.92S Meriden CLOUDY 67 56 67 MISG 29.91F New Haven CLOUDY 63 58 83 S8 29.92S Chester CLOUDY 66 57 72 CALM 29.92F Groton PTSUNNY 59 57 93 SE6 29.92F FOG Wilimantic CLOUDY 66 57 72 SW6 29.92S IN RI CITY SKY/WX TMP DP RH WIND PRES REMARKS Providence CLOUDY 63 58 83 S7 29.93R Block Island CLOUDY 59 56 89 S9 29.94S Westerly PTSUNNY 61 57 87 S8 29.94R IN MA CITY SKY/WX TMP DP RH WIND PRES REMARKS Boston MOSUNNY 56 54 93 E9 29.93R Worcester CLOUDY 62 54 74 S3 29.92S Westfield CLOUDY 64 56 75 SE6 29.90S Provincetown MOSUNNY 52 49 89 NE8 29.93F Nantucket MOSUNNY 62 55 77 VRB3 29.93R $$ ANZ330-335-338-340-345-350-353-355-271900- COASTAL MARINE OBSERVATIONS STATION/POSITION TIME SKY/WX TEMP WIND PRES VSBY WAVE AIR SEA DIR/SP/G HT/PER (UTC) (F) (DEG/KT/KT) (MB) (MI) (FT/S) NY HARB ENTRANCE 1650 52 51 160/ 6/ 6 1013.5 4/11 20 S FIRE ISLAND 1750 54 52 160/ 6/ 8 1013.3 6/10 GREAT SOUTH BAY 1715 56 58 190/ 6/ 8 N/A 23 SSW MONTAUK P 1650 51 47 1014.2 7/10 15 E BARNEGAT LI 1630 52 N/A 6/11 HUDSON CANYON 1650 53 53 140/ 4/ 6 1014.3 6/10 KINGS POINT 1748 61 49 210/ 9/ 9 1012.5 EXECUTION ROCKS NOT AVBL CENTRAL LI SOUND 1745 52 30/ 2/ 4 N/A 0 EASTERN LI SOUND NOT AVBL ROBBINS REEF 1748 60 160/ 14/ 15 1012.9 $$ >>>>>>>>>>>>>>>>>>>>>>>>>>>> KEY <<<<<<<<<<<<<<<<<<<<<<<<<<< > < > SKY/WX - Sky Condition/Present Weather < > TMP - Temperature in Fahrenheit < > DP - Dew Point in Fahrenheit < > RH - Relative Humidity in Percent < > WIND - Direction (from) and Speed in MPH < > PRES - Mean Sea Level Pressure (inches of Hg) < > WCI - Wind Chill Index < > VSB - VISIBILITY IN MILES < > HX - HEAT INDEX < > TC - TEMPERATURE IN CELSIUS < > VRB - VARIABLE WIND DIRECTION < > < >>>>>>>>>>>>>>>>>>>>>>>>>>>> KEY <<<<<<<<<<<<<<<<<<<<<<<<<<<

USA.gov is the U.S. government's official web portal to all federal, state and local government web resources and services.